Simultaneous Nadir Overpasses (SNOs) Predictions

Prediction of SNOs between AURA and NPP Satellite Orbit:

Table of predicted SNOs for the next 14.0 days since TLE Epoch: 1/21/2023
Index Date (AURA) Time (AURA) Lat,Lon (AURA) SZA (AURA ) Date (NPP) Time (NPP) Lat,Lon (NPP) SZA (NPP ) Distance(km) Time Diff (sec)
1 01/23/2023 02:53:28 79.18, 31.83 112.48 01/23/2023 02:52:30 79.17, 31.71 112.55 2.82 58
2 01/23/2023 03:42:47 -79.50,-158.42 67.98 01/23/2023 03:43:06 -79.49,-158.44 67.98 0.62 19
3 01/25/2023 19:10:06 79.26, 148.18 111.77 01/25/2023 19:09:23 79.25, 148.13 111.81 1.07 43
4 01/25/2023 19:59:25 -79.57, -42.03 68.69 01/25/2023 19:59:59 -79.58, -41.97 68.73 1.30 34
5 01/28/2023 11:26:45 79.31, -95.66 111.05 01/28/2023 11:26:18 79.30, -95.75 111.09 2.01 27
6 01/28/2023 12:16:05 -79.58, 73.89 69.36 01/28/2023 12:16:55 -79.59, 73.91 69.40 0.52 50
7 01/31/2023 03:43:22 79.40, 20.82 110.23 01/31/2023 03:43:11 79.40, 20.85 110.23 0.76 11
8 01/31/2023 04:32:44 -79.60,-170.14 70.08 01/31/2023 04:33:51 -79.59,-170.28 70.10 3.05 67
9 02/02/2023 19:10:41 -79.16, -32.55 70.16 02/02/2023 19:09:30 -79.16, -32.57 70.11 0.50 71



Historial Predications of SNOs between AURA and NPP
